Flag for Italy Weather past 2 weeks in Palermo, Italy

Now
63 °F

Passing clouds.


Feels Like: 63 °F
Forecast: 53 / 62 °F
Wind: 15 mph from Southwest

Location: Palermo / Punta Raisi

Current Time: Apr 1, 2015 at 3:23:01 AM

Latest Report: Apr 1, 2015 at 2:50 AM


Visibility: N/A

Pressure: 29.98 "Hg

Humidity: 59%

Dew point: 48 °F

Location of PalermoLocation

Historic Weather in Palermo — Graph

°F

Palermo temperature yesterday

Maximum temperature yesterday: 68 °F (at 9:50 AM)
Minimum temperature yesterday: 52 °F (at 3:50 AM)
Average temperature yesterday: 59 °F

Past Weeks' High & Low Weather Summary

 TemperatureHumidityPressure
High68 °F (Mar 25, 6:20 PM)100% (Mar 25, 2:50 AM)30.18 "Hg (Mar 25, 2:50 AM)
Low46 °F (Mar 18, 5:20 AM)43% (Mar 25, 6:20 PM)29.42 "Hg (Mar 25, 12:20 AM)
Average58 °F81%29.91 "Hg
* Reported Mar 17 12:20 AM — Apr 1 1:50 AM, Palermo, Weather by CustomWeather, © 2015

Note: Actual official high and low records may vary slightly from our data, if they occured in-between our weather recording intervals... More about our weather records

Advertising

Palermo weather history for previous 24 hours

 ConditionsComfort  
Time TempWeatherWind HumidityBarometerVisibility
1:50 AM
Wed, Apr 1
63 °FClear.20 mph64%29.98 "Hg10 mi
1:20 AM63 °FClear.18 mph64%29.98 "Hg10 mi
12:50 AM63 °FClear.20 mph64%29.98 "Hg10 mi
12:20 AM63 °FClear.24 mph68%29.98 "Hg10 mi
11:50 PM
Tue, Mar 31
63 °FClear.25 mph68%29.95 "Hg10 mi
11:20 PM63 °FClear.23 mph68%29.98 "Hg10 mi
10:50 PM63 °FClear.18 mph73%29.98 "Hg10 mi
10:20 PM63 °FClear.17 mph68%30.01 "Hg10 mi
9:50 PM63 °FClear.16 mph73%30.01 "Hg10 mi
9:20 PM61 °FClear.20 mph77%30.01 "Hg10 mi
8:50 PM61 °FClear.15 mph83%29.98 "Hg10 mi
8:20 PM61 °FSunny.12 mph88%29.98 "Hg10 mi
7:50 PM59 °FSunny.7 mph94%29.98 "Hg10 mi
7:20 PM61 °FSunny.15 mph88%29.98 "Hg10 mi
6:50 PM61 °FSunny.5 mph88%30.01 "Hg10 mi
6:20 PM61 °FSunny.8 mph88%29.98 "Hg10 mi
5:50 PM61 °FSunny.7 mph88%30.01 "Hg10 mi
5:20 PM61 °FPassing clouds.10 mph88%30.01 "HgN/A
4:50 PM61 °FPassing clouds.10 mph88%30.01 "HgN/A
4:20 PM61 °FPassing clouds.10 mph88%30.01 "HgN/A
3:50 PM61 °FPassing clouds.12 mph88%30.01 "HgN/A
3:20 PM61 °FSunny.12 mph88%30.01 "Hg10 mi
2:50 PM61 °FPassing clouds.10 mph88%30.01 "HgN/A
2:20 PM61 °FPassing clouds.12 mph88%30.01 "HgN/A
1:50 PM61 °FPassing clouds.13 mph88%30.04 "HgN/A
1:20 PM61 °FPassing clouds.12 mph88%30.04 "HgN/A
12:50 PM61 °FSunny.13 mph88%30.04 "Hg10 mi
12:20 PM61 °FSunny.13 mph88%30.04 "Hg10 mi
11:50 AM61 °FSunny.16 mph88%30.04 "Hg10 mi
11:20 AM63 °FSunny.16 mph83%30.04 "Hg10 mi
10:50 AM64 °FSunny.10 mph73%30.04 "Hg10 mi
9:50 AM68 °FSunny.7 mph56%30.04 "Hg10 mi
9:20 AM64 °FSunny.8 mph68%30.04 "Hg10 mi
8:50 AM63 °FSunny.14 mph68%30.04 "Hg10 mi
8:20 AM59 °FSunny.10 mph77%30.04 "Hg10 mi
7:50 AM57 °FClear.12 mph82%30.01 "Hg10 mi
7:20 AM55 °FClear.5 mph88%30.01 "Hg10 mi
6:50 AM54 °FClear.7 mph88%29.98 "Hg10 mi
6:20 AM57 °FClear.5 mph88%29.98 "Hg10 mi
5:50 AM55 °FClear.2 mph88%29.98 "Hg10 mi
5:20 AM54 °FClear.5 mph88%29.98 "Hg10 mi
4:50 AM54 °FClear.1 mph88%29.98 "Hg10 mi
4:20 AM54 °FClear.2 mph88%29.95 "Hg10 mi
3:50 AM52 °FClear.2 mph88%29.95 "Hg10 mi
3:20 AM54 °FClear.6 mph82%29.95 "Hg10 mi
Weather by CustomWeather, © 2015

See weather overviewHow to use our weather pages